Weather History for Chambery, France

Change the Weather History Date:

Thursday, January 3, 2013

  Actual Average Record
Temperature  
Mean Temperature 34 °F -  
Max Temperature 41 °F 40 °F 53 °F (2001)
Min Temperature 26 °F 29 °F 17 °F (2002)
Degree Days  
Heating Degree Days 32    
Moisture  
Dew Point 30 °F    
Average Humidity 89    
Maximum Humidity 100    
Minimum Humidity 70    
Precipitation  
Precipitation 0.00 in - - ()
Sea Level Pressure  
Sea Level Pressure 30.65 in    
Wind  
Wind Speed 3 mph ()    
Max Wind Speed 7 mph    
Max Gust Speed -    
Visibility 5.5 miles    
Events      
Averages and records for this station are not official NWS values.
T = Trace of Precipitation, MM = Missing Value Source: Averaged Metar Reports

Daily Weather History Graph

Daily Weather History Graph

Search for Another Location

Airport:

Trip Planner

Search our weather history database for the weather conditions in past years. The results will help you decide how hot, cold, wet, or windy it might be!

Date:

Astronomy

Jan. 03, 2013 Rise Set
Actual Time 8:17 AM CET 5:05 PM CET
Civil Twilight 7:43 AM CET 5:39 PM CET
Nautical Twilight 7:05 AM CET 6:16 PM CET
Astronomical Twilight 6:29 AM CET 6:52 PM CET
Moon 11:44 PM CET (1/3) 11:01 AM CET (1/3)
Length of Visible Light 9h 56m
Length of Day
8h 48m
Waning Gibbous, 68% of the Moon is Illuminated
Jan 3
Waning Gibbous
Jan 5
Last Quarter
Jan 11
New
Jan 19
First Quarter
Jan 27
Full

Hourly Weather History & Observations

Time (CET) Temp. Windchill Dew Point Humidity Pressure Visibility Wind Dir Wind Speed Gust Speed Precip Events Conditions
12:00 AM 37.4 °F 32.1 °F 28.4 °F 70% 30.48 in 6.2 mi NNE 6.9 mph - N/A   Unknown
12:30 AM 33.8 °F 30.8 °F 28.4 °F 81% 30.48 in 6.2 mi South 3.5 mph - N/A   Unknown
1:00 AM 32.0 °F 26.4 °F 28.4 °F 87% 30.51 in 6.2 mi South 5.8 mph - N/A   Unknown
1:30 AM 32.0 °F 27.5 °F 28.4 °F 87% 30.51 in 6.2 mi SSE 4.6 mph - N/A   Partly Cloudy
2:00 AM 32.0 °F 28.7 °F 28.4 °F 87% 30.54 in 6.2 mi South 3.5 mph - N/A   Unknown
2:30 AM 30.2 °F - 28.4 °F 93% 30.54 in 6.2 mi Variable 2.3 mph - N/A   Unknown
3:00 AM 28.4 °F - 26.6 °F 93% 30.57 in 6.2 mi Variable 2.3 mph - N/A   Unknown
3:30 AM 30.2 °F - 28.4 °F 93% 30.57 in 6.2 mi Calm Calm - N/A   Unknown
4:00 AM 28.4 °F - 26.6 °F 93% 30.57 in 6.2 mi Variable 2.3 mph - N/A   Unknown
4:30 AM 26.6 °F - 24.8 °F 93% 30.60 in 6.2 mi Calm Calm - N/A   Unknown
5:00 AM 28.4 °F - 26.6 °F 93% 30.60 in 6.2 mi Variable 2.3 mph - N/A   Unknown
5:30 AM 28.4 °F - 26.6 °F 93% 30.60 in 6.2 mi SE 2.3 mph - N/A   Unknown
6:00 AM 26.6 °F - 26.6 °F 100% 30.63 in - Calm Calm - N/A   Clear
6:30 AM 28.4 °F - 26.6 °F 93% 30.63 in - South 1.2 mph - N/A   Clear
7:00 AM 26.6 °F - 26.6 °F 100% 30.66 in - South 2.3 mph - N/A   Clear
7:30 AM 26.6 °F - 26.6 °F 100% 30.66 in - Calm Calm - N/A   Clear
8:00 AM 28.4 °F - 26.6 °F 93% 30.66 in 6.2 mi Calm Calm - N/A   Partly Cloudy
8:30 AM 26.6 °F - 24.8 °F 93% 30.66 in 6.2 mi SSE 1.2 mph - N/A   Scattered Clouds
9:00 AM 28.4 °F - 26.6 °F 93% 30.66 in 6.2 mi Calm Calm - N/A   Mostly Cloudy
9:30 AM 30.2 °F - 30.2 °F 100% 30.66 in 6.2 mi Calm Calm - N/A   Mostly Cloudy
10:00 AM 32.0 °F - 30.2 °F 93% 30.69 in 4.3 mi Calm Calm - N/A   Mostly Cloudy
10:30 AM 32.0 °F 27.5 °F 32.0 °F 100% 30.69 in 5.0 mi South 4.6 mph - N/A   Mostly Cloudy
11:00 AM 33.8 °F 28.6 °F 32.0 °F 93% 30.71 in 5.0 mi South 5.8 mph - N/A   Mostly Cloudy
11:30 AM 37.4 °F - 33.8 °F 87% 30.71 in 5.0 mi Variable 1.2 mph - N/A   Partly Cloudy
12:00 PM 37.4 °F - 32.0 °F 81% 30.71 in 5.0 mi Variable 2.3 mph - N/A   Partly Cloudy
1:00 PM 39.2 °F - 32.0 °F 75% 30.69 in 5.6 mi Calm Calm - N/A   Partly Cloudy
1:35 PM 41.0 °F 38.0 °F 32.0 °F 70% 30.66 in 5.6 mi North 4.6 mph - N/A   Unknown
2:00 PM 41.0 °F 39.0 °F 32.0 °F 70% 30.66 in 5.6 mi Variable 3.5 mph - N/A   Unknown
2:39 PM 41.0 °F 37.1 °F 33.8 °F 76% 30.66 in 5.6 mi North 5.8 mph - N/A   Unknown
3:00 PM 41.0 °F 36.4 °F 33.8 °F 76% 30.66 in - North 6.9 mph - N/A   Clear
3:30 PM 41.0 °F 39.0 °F 33.8 °F 76% 30.66 in - North 3.5 mph - N/A   Clear
4:00 PM 41.0 °F - 33.8 °F 76% 30.66 in - Variable 2.3 mph - N/A   Clear
4:30 PM 37.4 °F - 32.0 °F 81% 30.66 in - Variable 2.3 mph - N/A   Clear
5:00 PM 37.4 °F - 32.0 °F 81% 30.69 in - Variable 2.3 mph - N/A   Clear
5:30 PM 35.6 °F - 30.2 °F 81% 30.69 in - Calm Calm - N/A   Clear
6:00 PM 35.6 °F - 32.0 °F 87% 30.69 in - Variable 1.2 mph - N/A   Clear
6:30 PM 33.8 °F 30.8 °F 30.2 °F 87% 30.69 in 5.0 mi South 3.5 mph - N/A   Unknown
7:00 PM 32.0 °F 28.7 °F 30.2 °F 93% 30.71 in 4.3 mi South 3.5 mph - N/A   Unknown
7:30 PM 32.0 °F - 30.2 °F 93% 30.71 in 5.6 mi SSE 1.2 mph - N/A   Unknown
8:00 PM 32.0 °F - 30.2 °F 93% 30.71 in 5.6 mi South 1.2 mph - N/A   Unknown
8:30 PM 30.2 °F - 28.4 °F 93% 30.71 in 4.3 mi SSE 2.3 mph - N/A   Partly Cloudy
9:00 PM 30.2 °F - 30.2 °F 100% 30.71 in 3.7 mi Calm Calm - N/A   Partly Cloudy
9:30 PM 30.2 °F - 30.2 °F 100% 30.71 in 3.1 mi Calm Calm - N/A   Scattered Clouds
10:00 PM 30.2 °F - 30.2 °F 100% 30.71 in - Calm Calm - N/A   Mostly Cloudy
10:30 PM 30.2 °F - 28.4 °F 93% 30.71 in 3.1 mi South 2.3 mph - N/A   Mostly Cloudy
11:00 PM 28.4 °F - 28.4 °F 100% 30.71 in - SE 2.3 mph - N/A   Partly Cloudy
11:30 PM 30.2 °F 26.7 °F 28.4 °F 93% 30.71 in - SSE 3.5 mph - N/A   Partly Cloudy